Volver al catálogo

COSMOS 2251 DEB

ActivoLEO
NORAD 35587·DEBRIS·🇷🇺 Russia

Lanzado Jun 16, 1993 desde Plesetsk Cosmodrome

Loading…

Próximos Pases (próximas 24 horas)

TLE

ActualizadoSource: Space-Track

Época: Sep 13, 2026, 08:06 UTC

1 35587U 93036AME 26256.33815375  .00001200  00000-0  18122-3 0  9995
2 35587  74.0011 243.2615 0100247   1.0362 359.0997 14.72210563703869

Sigue COSMOS 2251 DEB en tiempo real con AllMySat

Download on the App Store